Location: St Paul
(33.9360°N, 83.4200°W)
Time: 15:13:07
(UTC-04:00)

Meteor 1-21 Rocket - Pass Details

Date: 06 October 2017
Orbit: 832 x 908 km, 81.2° (Epoch: 21 October)

Event Time Altitude Azimuth Distance (km) Brightness Sun altitude
Rises 19:41:44 0° 357° (N) 3,423 7.4 -7.2°
Reaches altitude 10° 19:44:14 10° 2° (N) 2,474 6.6 -7.7°
Maximum altitude 19:49:42 53° 79° (E) 1,020 4.3 -8.9°
Drops below altitude 10° 19:55:03 10° 156° (SSE) 2,433 6.4 -10.0°
Sets 19:57:30 0° 161° (SSE) 3,361 7.1 -10.5°
